Theta_e
318 315 311 308 296 292 288 291 294 292 293 298 298 297 298 297 299 292 310 322 325 329 334 340 347 349 349 349 349 348 348 348 346 345 344 342 340 338 337 337 339 340 341 340 336 334 334 333 333
312 313 308 299 291 284 284 292 293 293 295 296 298 297 298 298 304 308 312 322 327 330 332 336 345 348 349 348 347 348 347 347 346 343 341 339 339 336 335 335 336 337 336 334 333 331 328 328 326
311 309 302 294 287 284 285 291 292 294 296 295 299 300 299 298 303 308 315 321 324 326 329 333 342 347 348 348 348 347 345 344 342 341 338 339 336 334 332 331 333 334 332 329 326 324 323 322 321
307 301 296 292 288 292 291 294 292 293 295 296 295 294 299 302 304 308 315 320 321 322 325 334 341 343 342 343 343 342 342 341 339 337 336 335 333 330 327 327 329 327 325 323 322 321 320 320 320
302 297 288 286 287 290 292 295 294 294 293 294 295 295 296 300 304 309 316 318 319 318 322 328 339 341 341 340 341 338 339 338 336 335 334 331 328 326 325 325 324 323 322 321 321 320 320 319 318
297 295 288 284 286 291 293 294 294 293 294 294 297 296 296 298 304 308 313 313 315 317 319 325 333 336 336 339 337 337 337 335 334 332 330 327 325 323 323 323 322 322 321 321 321 320 318 317 316
296 292 287 286 288 292 294 293 292 293 294 295 296 295 296 299 303 308 310 310 312 314 317 320 324 328 332 334 333 336 335 333 331 328 326 324 323 322 321 321 321 320 320 319 317 316 316 315 313
297 294 288 288 288 290 293 293 293 295 295 296 298 294 295 299 304 305 307 307 308 310 314 315 317 319 320 322 329 331 331 330 328 326 325 323 322 321 321 320 320 319 318 316 314 313 312 311 309
296 290 286 288 288 292 293 292 294 295 296 296 298 296 296 299 302 302 301 302 304 307 309 311 312 313 314 314 318 324 326 325 324 322 320 314 305 306 306 313 318 317 315 313 312 309 307 305 305
295 287 288 292 291 292 293 293 294 296 294 293 296 297 297 300 300 301 300 303 302 304 305 307 308 309 309 312 311 311 313 311 309 307 303 300 299 299 303 310 315 314 312 310 308 305 301 294 289
294 292 292 294 295 295 294 293 295 293 293 295 296 297 296 297 299 301 301 304 305 306 305 306 306 306 306 307 305 304 304 302 301 300 297 295 296 298 297 296 295 294 297 292 292 289 289 288 288
293 296 295 297 297 295 294 294 293 294 300 299 298 297 296 296 298 301 301 301 301 301 304 304 304 304 303 304 304 301 301 298 296 296 294 292 293 293 292 290 288 288 288 287 287 287 287 287 288
293 294 297 297 297 296 296 295 294 294 298 297 296 296 296 296 297 300 303 302 300 299 302 303 304 304 304 301 301 299 298 298 295 293 292 292 292 290 289 288 287 286 287 286 286 286 286 286 287
292 294 295 295 296 296 295 297 293 296 296 297 296 295 295 295 297 296 296 299 298 300 300 302 302 304 303 303 301 300 298 296 293 292 292 291 292 289 288 287 286 286 286 286 286 285 285 285 286
293 291 292 292 293 293 294 292 291 298 294 295 295 294 295 294 296 297 299 299 300 299 300 299 301 302 301 302 300 299 297 295 294 292 291 291 291 289 288 287 285 285 285 286 285 284 284 284 285
287 288 285 289 291 291 293 287 296 295 292 294 293 293 293 295 295 297 299 299 299 298 296 297 301 300 300 300 298 298 296 295 294 292 292 291 291 289 287 287 285 285 285 285 284 283 283 283 283
283 281 282 286 292 291 290 287 292 294 291 293 294 295 295 295 295 295 298 299 299 298 297 295 297 298 299 299 297 296 294 294 293 292 291 291 290 289 288 287 285 285 284 284 284 282 282 281 282
282 280 282 283 289 286 286 287 292 296 292 293 296 296 296 298 300 302 296 298 299 298 298 296 295 297 297 298 295 293 292 293 292 292 291 290 291 289 288 286 285 284 283 283 283 282 282 281 281
283 282 281 287 290 286 287 289 291 294 294 294 295 295 296 297 301 301 299 295 295 296 296 295 293 295 295 295 292 292 292 292 291 292 291 290 290 289 288 286 285 284 283 283 282 281 281 281 280
286 283 284 288 291 287 287 287 290 292 294 295 296 296 297 296 297 300 298 294 294 296 296 296 295 294 294 295 295 295 295 293 293 291 290 290 289 288 287 286 285 284 282 282 281 281 280 281 279
283 283 285 284 287 286 284 284 286 290 293 295 296 297 298 296 297 299 297 294 292 293 294 295 295 295 294 295 294 287 287 286 286 287 288 289 288 288 288 286 285 284 283 282 281 281 281 280 279
284 287 287 285 282 279 285 280 284 288 290 290 293 293 293 293 294 295 296 294 292 294 295 295 295 295 294 294 293 292 292 290 290 290 290 289 288 287 287 286 285 284 283 282 282 281 280 280 279
286 287 286 283 281 278 279 278 283 285 286 289 291 292 293 293 293 293 294 294 295 293 293 295 295 294 294 293 294 292 293 293 289 290 289 288 287 287 286 285 284 283 283 282 281 280 280 279 280
287 285 284 281 280 276 281 281 282 283 286 287 289 291 292 293 293 293 292 292 292 293 292 292 293 293 292 292 293 292 292 291 287 287 287 287 286 286 285 285 284 284 283 281 281 281 280 280 280
285 282 277 275 274 278 280 279 287 287 288 289 292 293 293 292 292 291 291 292 292 290 291 290 290 290 291 291 292 292 292 290 288 288 288 286 286 285 284 284 283 283 283 282 281 281 280 280 280
283 284 277 272 274 282 278 278 286 290 291 291 290 290 291 290 290 289 290 290 290 290 289 288 288 289 289 289 290 290 291 291 290 288 288 287 287 287 286 284 284 283 282 282 281 281 281 280 281
282 281 286 281 273 272 281 285 291 291 289 288 288 289 289 290 291 291 291 290 290 291 289 288 288 288 287 288 289 289 290 290 289 287 287 287 287 286 285 285 284 283 282 282 281 281 280 280 281
285 285 279 278 275 274 279 282 284 288 289 289 289 290 290 291 293 296 291 290 290 290 289 287 287 287 287 287 289 289 289 289 288 286 286 286 286 285 284 284 284 282 282 281 281 280 280 280 280
283 283 283 283 281 277 277 281 292 291 289 289 289 290 291 291 292 292 290 290 290 289 288 288 287 286 286 286 288 288 287 287 286 285 286 286 285 284 283 284 283 282 281 281 281 281 279 279 278
289 288 288 282 280 281 281 282 294 293 293 292 293 295 293 291 291 291 291 290 291 291 291 288 287 286 286 286 286 287 287 285 286 286 286 287 285 285 284 284 283 282 282 281 281 280 279 279 278
Wind_Speed
3 3 3 5 5 6 4 7 3 3 2 2 6 5 8 4 7 6 4 6 5 11 7 7 14 14 14 14 13 14 13 12 11 11 9 8 7 7 6 5 6 7 9 10 8 8 8 10 10
2 1 5 3 5 3 7 4 5 6 2 4 3 3 1 6 2 3 2 7 6 9 6 6 10 14 14 13 15 15 14 12 12 12 10 7 8 7 7 7 6 7 7 7 8 8 10 10 10
2 4 4 5 4 5 5 5 4 2 2 0 1 1 2 4 2 4 5 10 7 7 6 6 8 11 14 14 14 12 14 13 10 10 9 9 9 8 8 7 8 10 9 9 8 8 9 9 10
3 6 5 4 6 8 7 6 2 2 1 3 1 5 3 3 4 5 6 10 8 6 6 7 10 12 11 9 9 9 9 11 9 11 12 10 10 9 8 9 9 9 9 8 9 9 10 10 10
5 4 3 3 6 7 6 6 4 3 2 2 3 4 5 3 3 4 7 9 11 7 6 6 11 11 11 11 10 12 12 10 11 12 11 11 11 10 9 9 10 10 9 10 10 10 11 10 11
5 4 3 3 5 6 7 5 4 4 3 0 3 1 7 1 4 5 6 7 6 8 6 6 9 11 16 13 15 15 13 14 14 14 13 12 11 10 10 11 11 11 10 10 11 10 11 10 11
6 4 4 4 5 7 4 3 3 3 2 6 2 2 5 3 6 6 6 6 5 5 6 5 6 8 13 14 16 13 14 15 15 14 13 12 11 11 11 11 11 11 11 11 11 10 10 11 11
6 4 1 4 3 7 4 2 1 4 5 2 5 6 6 1 6 7 5 5 6 5 5 6 6 6 5 5 14 11 13 14 13 13 12 10 11 10 11 9 12 12 12 11 11 10 10 11 12
4 4 2 6 4 6 1 2 2 1 2 2 7 5 2 4 7 6 4 3 4 5 7 6 6 6 6 6 5 9 11 12 12 10 11 8 4 5 6 6 11 12 12 11 11 11 10 11 11
5 4 9 7 5 5 4 4 3 1 4 5 6 5 4 6 7 9 9 12 9 10 9 7 7 7 6 5 6 6 5 5 5 6 7 5 5 4 4 5 8 10 10 10 10 11 10 8 4
5 7 5 6 8 5 4 4 5 4 8 10 9 8 6 7 8 11 13 12 19 12 7 11 9 7 8 6 4 3 3 4 4 7 6 5 4 3 3 3 3 4 7 4 5 5 4 5 4
3 9 6 5 4 3 5 4 5 9 19 9 13 7 6 10 14 16 15 15 12 12 12 10 10 10 8 5 5 5 5 4 4 5 7 5 4 4 4 3 4 4 3 4 3 3 3 4 4
5 5 6 6 7 8 5 13 8 10 20 10 8 8 11 10 14 12 14 9 8 11 13 14 13 13 11 9 6 6 6 6 6 6 6 6 5 5 5 4 4 4 4 4 4 4 4 3 3
3 4 8 8 9 8 8 17 7 13 7 10 8 13 13 12 16 8 9 15 14 14 15 13 15 15 12 12 11 9 7 6 6 6 7 8 6 6 5 5 4 4 4 3 4 4 4 3 2
3 7 8 7 6 8 7 13 12 19 3 13 11 11 10 14 9 18 17 18 18 15 12 16 16 14 15 15 11 9 8 7 8 8 8 9 8 8 7 5 5 4 4 5 4 3 2 2 1
3 1 5 2 7 2 8 13 23 11 5 13 12 11 10 14 14 17 16 17 14 11 16 15 15 18 17 16 12 9 8 8 8 7 7 10 9 9 7 6 5 5 4 4 4 3 2 2 2
3 5 7 13 13 6 7 9 11 4 6 10 12 12 12 12 11 14 15 17 16 18 16 16 17 18 19 16 11 11 11 9 8 7 8 10 10 9 8 7 6 7 5 4 4 2 2 2 1
8 6 6 7 5 3 5 14 14 19 6 16 19 18 16 18 25 16 13 14 13 13 16 16 15 17 16 11 9 6 7 9 8 9 9 11 9 10 8 6 7 6 5 5 4 3 2 2 2
3 5 6 14 12 3 11 18 18 19 19 22 20 19 20 21 22 15 10 9 10 10 13 16 17 20 15 13 13 10 15 11 10 10 14 14 11 11 10 7 8 7 8 7 6 4 4 1 1
8 5 15 13 19 6 14 18 17 20 23 25 24 25 21 12 13 17 9 8 10 12 15 14 18 17 17 14 13 9 12 11 11 10 11 13 14 13 11 11 9 10 6 7 7 5 4 2 2
5 8 16 11 9 6 9 12 7 12 17 22 23 23 18 13 17 19 10 7 8 11 14 18 19 19 18 18 11 3 5 4 4 7 9 12 15 15 15 13 11 10 8 8 7 6 7 5 1
12 12 14 8 3 5 6 18 8 10 14 9 18 11 11 11 10 10 12 9 9 15 12 15 14 17 17 18 15 19 15 12 12 12 11 12 17 17 16 15 13 12 9 9 9 6 4 5 5
12 4 5 3 5 4 1 5 3 3 9 13 10 10 12 11 8 9 10 9 11 9 11 13 13 14 15 18 19 16 16 11 5 8 13 12 12 14 15 15 14 13 10 9 10 8 7 4 5
1 2 4 4 2 7 14 11 5 5 8 5 4 7 10 9 10 10 7 7 8 9 7 7 10 14 15 17 18 20 20 11 8 11 12 11 9 9 12 14 13 12 12 12 10 9 8 7 4
3 5 5 5 1 12 3 7 14 6 8 4 10 11 10 8 9 9 11 15 12 8 8 5 8 10 12 16 19 19 18 14 16 14 12 14 11 10 14 15 13 12 13 12 11 10 9 9 7
8 10 8 7 8 16 1 15 9 9 7 7 6 5 8 8 7 7 8 8 9 10 7 6 6 7 9 12 12 9 14 10 11 13 11 11 12 14 15 16 14 14 13 12 11 9 9 9 7
5 7 5 3 1 2 11 21 23 16 8 7 7 6 9 9 9 10 10 7 9 9 7 8 8 8 8 9 10 12 14 15 14 11 10 11 11 11 14 17 16 14 13 13 12 9 11 10 9
6 1 1 2 4 10 11 15 28 14 9 7 8 9 9 10 12 14 9 9 7 7 8 7 9 9 9 9 11 11 12 12 10 9 14 13 11 12 14 16 16 15 15 15 14 10 10 11 8
3 3 3 2 5 13 19 16 22 18 6 9 6 7 9 10 12 10 9 9 9 6 6 8 7 6 7 9 10 10 11 11 9 11 12 13 12 14 15 16 16 16 17 16 15 14 13 14 11
7 14 21 18 13 13 19 20 23 22 17 10 18 21 10 9 13 16 17 14 15 15 15 8 7 6 6 6 7 10 10 9 11 13 14 13 15 14 15 16 17 17 17 17 18 16 14 16 14
Wind_Direction
6 14 64 41 45 60 265 264 262 271 247 174 122 146 193 168 169 211 323 196 160 154 171 188 176 175 169 167 165 162 157 152 150 145 128 99 112 115 110 111 88 80 75 76 72 58 52 51 50
359 359 44 77 86 29 271 253 243 234 316 111 130 113 112 245 219 259 122 212 173 150 158 155 165 175 172 163 166 165 160 152 148 134 112 113 118 119 126 120 108 103 111 91 75 68 62 56 54
107 40 78 92 116 193 229 227 241 272 150 65 267 203 194 229 238 213 220 165 154 150 153 157 153 158 164 168 166 152 145 145 142 138 146 153 147 149 136 126 117 99 98 96 88 80 76 73 63
54 12 36 88 234 250 221 254 253 300 281 226 218 271 290 235 171 199 156 152 147 156 154 167 163 165 163 165 162 157 146 144 160 181 175 167 157 153 145 134 119 111 106 103 95 90 85 74 67
36 61 47 332 266 265 257 261 199 211 259 210 161 270 254 234 50 148 152 151 159 162 164 171 172 174 173 165 164 180 184 163 181 182 173 164 157 152 149 137 130 119 117 110 105 100 89 83 74
42 91 47 257 259 266 270 242 176 203 222 262 192 283 248 42 153 179 147 148 152 158 167 176 181 176 189 187 189 192 189 180 183 178 171 167 159 153 149 139 135 128 123 114 107 100 90 82 76
116 93 218 253 266 301 257 135 196 205 191 249 146 248 269 274 191 152 141 131 148 161 164 177 173 172 188 189 190 190 177 184 179 177 172 169 161 156 150 141 138 133 124 114 105 99 93 83 75
106 92 277 253 264 275 312 241 217 183 255 62 175 235 262 0 133 117 113 141 163 184 189 183 176 168 168 170 192 176 182 177 180 177 166 157 155 154 150 148 147 141 127 119 111 98 86 80 72
134 66 243 251 193 257 240 325 188 189 282 229 209 222 219 116 123 111 130 180 202 213 203 191 183 176 166 164 175 163 171 171 172 162 141 123 108 120 115 160 148 138 127 122 114 107 96 85 73
106 139 221 211 207 241 289 204 258 250 249 252 283 241 137 149 174 171 185 199 206 208 203 191 185 178 168 164 166 156 160 153 145 139 126 129 136 140 144 136 135 131 126 118 107 96 82 70 66
175 209 212 252 230 261 258 271 209 179 262 222 225 249 182 185 204 206 211 205 210 204 193 194 185 178 172 173 163 161 155 149 148 147 144 146 144 156 123 95 70 65 77 57 75 70 59 65 58
214 245 208 254 216 275 247 283 241 187 251 230 217 238 170 203 210 213 216 217 203 194 199 188 185 182 183 167 177 171 167 166 165 166 159 153 156 157 147 134 138 127 125 119 112 109 106 92 78
215 234 242 242 266 257 286 253 234 249 254 247 240 233 233 225 224 224 229 233 205 208 202 196 186 191 185 183 173 176 185 179 174 171 170 161 164 166 153 162 158 151 153 143 147 136 122 108 99
214 252 264 266 245 230 210 271 139 250 269 266 227 241 237 229 231 234 222 229 212 208 206 196 197 194 184 192 187 189 183 177 176 175 180 173 167 165 165 162 165 158 151 159 145 147 135 117 109
296 311 310 223 247 231 169 292 224 252 270 273 265 258 254 234 225 227 230 227 221 217 198 196 196 194 194 197 190 187 188 181 186 187 177 176 174 173 165 162 167 165 164 150 131 126 113 113 109
320 203 309 275 144 245 153 258 277 250 222 272 283 282 259 259 230 234 228 225 215 204 203 192 192 193 195 197 190 191 186 186 189 185 181 182 180 173 163 166 169 163 162 152 156 150 114 81 48
334 240 230 310 197 153 187 247 269 261 181 271 282 279 279 281 260 239 236 227 212 203 200 199 196 198 196 197 187 188 181 188 188 180 183 186 182 175 170 172 165 159 159 167 158 124 139 150 156
226 223 261 249 302 159 242 254 280 286 267 257 268 270 268 267 265 260 229 222 219 214 205 198 193 197 192 193 188 185 181 192 178 183 187 180 181 176 169 164 163 159 158 169 163 148 125 144 152
247 244 242 262 269 278 245 272 271 274 283 273 265 261 259 254 268 278 252 208 203 203 204 204 190 194 180 184 181 190 203 194 196 193 182 177 179 177 176 172 164 170 178 178 167 138 151 157 154
245 284 267 281 271 188 273 270 267 262 256 261 268 271 262 271 271 267 265 212 202 215 211 209 209 195 193 190 200 202 192 206 200 188 185 179 173 176 179 175 179 178 164 171 174 157 140 124 172
200 224 258 255 317 252 302 275 230 263 248 261 264 258 276 259 275 285 281 238 215 222 211 209 205 201 198 196 178 109 81 61 139 189 181 184 181 178 181 179 175 175 172 178 181 173 164 151 157
265 230 253 260 359 249 35 293 213 230 261 241 259 262 256 245 252 260 297 281 221 228 218 214 211 203 196 186 185 194 195 189 203 194 192 193 187 183 180 177 175 175 177 174 184 170 171 146 162
230 198 233 187 204 332 291 269 162 154 255 260 267 272 273 275 270 298 269 264 270 254 228 212 200 201 195 194 193 192 205 212 171 172 181 185 190 190 182 179 177 177 178 182 174 164 181 181 154
50 76 58 52 115 267 200 193 55 173 213 256 240 277 278 307 334 318 301 289 288 274 244 224 207 197 188 190 200 200 204 189 165 168 175 180 181 186 190 184 182 182 180 178 180 180 172 183 175
156 51 321 326 349 253 167 231 228 207 217 243 264 275 283 323 327 330 338 331 342 305 304 231 208 214 196 197 200 201 205 189 186 180 184 173 177 187 194 185 186 185 182 180 171 175 176 181 185
177 163 165 243 275 286 33 256 268 225 254 254 256 296 304 320 312 289 289 327 315 326 300 237 225 240 192 193 204 209 208 207 200 185 179 185 190 191 183 189 188 187 180 178 177 179 177 176 185
172 179 206 246 209 293 255 279 281 230 266 321 312 340 304 298 296 319 314 317 325 314 290 235 210 204 201 196 200 206 205 203 197 185 185 182 184 183 179 183 182 183 178 180 178 183 180 178 182
181 200 81 313 235 252 271 277 266 302 303 299 314 315 327 324 317 308 298 307 289 289 288 253 228 199 190 198 203 206 204 209 204 182 186 185 181 174 174 183 184 178 178 177 179 182 179 178 184
175 219 210 282 214 256 262 255 278 293 299 314 308 266 274 287 287 286 296 317 330 317 288 294 293 246 206 199 206 210 209 203 189 189 189 185 178 175 174 180 184 185 184 183 185 187 178 185 178
217 248 249 245 253 237 250 252 280 292 306 305 301 307 311 275 352 359 3 4 7 358 357 330 312 276 271 274 242 220 220 202 198 204 197 191 192 184 176 178 185 187 189 185 186 186 185 185 182